Date,TemperatureHighF,TemperatureAvgF,TemperatureLowF,DewpointHighF,DewpointAvgF,DewpointLowF,HumidityHigh,HumidityAvg,HumidityLow,PressureMaxIn,PressureMinIn,WindSpeedMaxMPH,WindSpeedAvgMPH,GustSpeedMaxMPH,PrecipitationSumIn
2013-2-7,34,33,32,28,-36,-100,78,39,78,29.39,29.39,6,-497,6,0.00
2013-2-8,47,34,29,27,-100,-100,99,1,79,30.21,29.41,18,4,23,0.00
2013-2-9,51,32,29,37,-98,-100,96,1,96,30.09,29.64,22,-11,29,2.88
2013-2-10,51,44,37,-100,-100,-100,0,0,100,29.80,29.38,37,15,46,0.00
2013-2-11,48,37,29,-100,-100,-100,0,0,100,30.05,29.81,22,6,31,0.00
2013-2-12,43,34,24,-100,-100,-100,0,0,100,30.06,29.84,8,2,11,0.00
2013-2-13,56,41,28,-100,-100,-100,0,0,100,29.84,29.70,21,6,28,0.00
2013-2-14,50,41,33,-100,-100,-100,0,0,100,30.06,29.72,23,8,26,0.00
2013-2-15,38,29,20,-100,-100,-100,0,0,100,30.25,30.06,24,9,32,0.00
2013-2-16,35,28,18,-100,-100,-100,0,0,100,30.18,29.94,17,6,23,0.00
2013-2-17,59,44,28,-100,-100,-100,0,0,100,29.94,29.56,24,8,31,0.00
2013-2-18,54,47,32,-100,-100,-100,0,0,100,29.84,29.42,35,17,41,0.00
2013-2-22,26,20,18,16,14,12,80,75,65,29.29,29.26,1,0,2,0.00
2013-2-23,40,28,13,25,18,7,79,65,50,29.28,29.15,7,2,10,0.00
2013-2-24,50,35,19,30,24,13,80,64,45,29.23,29.10,6,2,8,0.00
2013-2-25,38,34,31,32,28,23,90,76,65,29.16,28.86,10,4,14,0.00
2013-2-26,36,33,32,31,30,29,93,90,84,29.06,28.78,13,6,15,0.00
2013-2-27,37,33,30,29,27,25,90,79,66,29.25,29.04,13,6,17,0.00
2013-2-28,33,31,29,27,25,23,80,77,71,29.40,29.24,13,6,16,0.00
2013-3-1,32,28,24,24,22,18,80,77,70,29.50,29.37,12,5,14,0.00
2013-3-2,37,28,23,24,19,17,82,70,54,30.11,29.41,7,2,10,0.00
2013-3-3,44,36,25,29,25,20,79,66,53,30.10,29.74,14,4,14,0.00
2013-3-4,50,41,35,35,31,28,91,67,53,29.94,29.65,16,4,16,0.01
2013-3-5,37,33,27,33,22,17,93,67,53,30.36,29.94,23,10,23,0.03
2013-3-6,39,30,22,24,20,17,80,66,51,30.44,30.29,13,3,13,0.00
2013-3-7,49,37,25,32,26,20,81,66,48,30.30,30.12,10,3,10,0.00
2013-3-8,58,48,37,41,36,29,74,63,52,30.20,29.94,8,3,21,0.00
2013-3-9,59,53,46,56,47,39,98,81,61,29.95,29.55,10,3,18,0.56
2013-3-10,55,41,28,53,40,24,98,94,86,29.88,29.50,14,5,25,0.01
2013-3-11,38,30,26,25,23,20,89,76,49,30.03,29.85,10,3,20,0.01
2013-3-12,49,37,28,30,25,20,88,63,33,30.33,30.01,15,4,25,0.00
2013-3-13,46,34,24,27,22,19,84,63,36,30.48,30.31,7,2,11,0.00
2013-3-14,72,51,35,42,33,23,81,53,31,30.31,30.02,12,3,18,0.00
2013-3-15,82,59,38,50,43,35,92,60,27,30.06,29.61,12,3,21,0.00
2013-3-16,60,44,38,46,35,28,85,71,56,30.04,29.64,12,5,18,0.00
2013-3-17,38,34,33,33,30,26,94,84,68,30.04,29.74,10,3,18,0.08
2013-3-18,54,42,33,38,29,19,97,65,28,30.06,29.74,14,4,22,0.02
2013-3-19,39,33,27,37,27,18,97,79,48,30.25,30.03,5,0,7,0.09
2013-3-20,39,32,25,33,16,8,97,56,29,30.41,30.13,15,4,20,0.00
2013-3-21,30,28,23,28,19,11,94,73,50,30.13,29.91,6,2,12,0.01
2013-3-22,34,32,30,32,30,28,95,91,84,30.01,29.94,4,1,8,0.03
2013-3-23,39,34,33,33,31,28,97,88,66,30.02,29.84,9,2,16,0.05
2013-3-24,33,29,23,32,26,18,97,90,80,30.09,29.81,14,6,23,0.10
2013-3-25,33,28,21,28,23,17,90,84,72,30.35,30.07,13,5,21,0.08
2013-3-26,36,28,18,25,21,16,93,76,54,30.43,30.31,8,2,12,0.32
2013-3-27,50,38,24,34,28,21,92,68,49,30.32,30.19,8,2,13,0.00
2013-3-28,65,51,36,43,37,31,82,60,39,30.21,30.09,7,1,9,0.00
2013-3-29,70,56,42,46,40,35,87,59,29,30.17,30.03,6,2,13,0.00
2013-3-30,69,58,51,57,51,45,97,79,60,30.04,29.80,9,2,14,0.08
2013-3-31,66,55,42,54,42,30,97,66,33,29.94,29.87,13,3,21,0.00
2013-4-1,48,40,32,36,23,11,82,52,29,30.28,29.94,12,4,20,0.00
2013-4-2,51,40,30,24,21,18,73,49,30,30.33,30.23,8,2,12,0.00
2013-4-3,51,43,31,28,24,19,79,49,34,30.35,30.21,8,2,13,0.00
2013-4-4,63,49,37,35,28,23,69,45,25,30.22,30.03,9,2,12,0.00
2013-4-5,71,55,37,44,38,33,87,55,32,30.14,29.82,11,3,20,0.00
2013-4-6,78,64,54,51,44,38,74,50,28,29.82,29.60,19,6,28,0.00
2013-4-7,73,60,45,57,48,42,93,68,34,29.82,29.59,9,2,17,0.32
2013-4-8,75,65,56,63,59,54,97,82,64,29.67,29.61,12,3,17,0.02
2013-4-9,75,67,53,64,60,51,94,78,66,29.70,29.57,9,3,20,0.48
2013-4-10,53,42,37,51,41,36,96,95,89,29.90,29.67,16,5,20,0.93
2013-4-11,43,37,34,36,30,27,96,76,58,29.81,29.70,12,4,20,0.01
2013-4-12,54,40,31,35,30,27,87,70,44,30.02,29.77,12,3,20,0.00
2013-4-13,66,52,32,47,40,31,95,65,43,30.04,29.67,10,2,20,0.00
2013-4-14,74,64,55,57,48,36,78,58,44,29.68,29.42,20,6,39,0.02
2013-4-15,56,49,43,45,37,31,93,66,42,29.97,29.68,11,3,16,0.20
2013-4-16,48,45,43,38,34,31,76,66,54,30.11,29.96,12,4,16,0.00
2013-4-17,54,49,46,53,47,38,98,93,76,30.05,29.59,8,3,13,0.46
2013-4-18,48,40,37,47,36,27,97,87,68,29.92,29.53,14,6,24,0.32
2013-4-19,55,43,32,34,27,21,84,57,30,30.09,29.90,14,5,27,0.00
2013-4-20,59,45,29,37,31,26,92,60,36,30.23,30.08,8,2,12,0.00
2013-4-21,68,58,48,46,40,33,74,53,36,30.18,30.06,12,4,22,0.00
2013-4-22,68,57,48,51,44,40,91,63,43,30.10,29.85,13,4,21,0.02
2013-4-23,47,37,34,45,34,32,95,92,80,30.18,29.97,15,6,22,0.46
2013-4-24,55,43,29,35,30,24,96,65,36,30.27,30.16,12,3,20,0.37
2013-4-25,70,53,34,43,37,32,93,59,30,30.29,30.10,12,2,16,0.00
2013-4-26,57,52,48,50,46,39,96,82,53,30.19,30.10,14,3,21,0.63
2013-4-27,56,51,48,51,48,46,98,92,81,30.16,29.97,6,1,9,0.46
2013-4-28,76,60,41,57,50,41,99,74,43,29.97,29.74,10,3,16,0.01
2013-4-29,85,72,59,64,59,52,82,64,46,29.76,29.56,11,5,22,0.00
2013-4-30,86,75,66,58,54,50,73,50,33,29.74,29.58,15,6,26,0.00
2013-5-1,85,67,42,64,53,40,93,62,41,30.11,29.74,13,4,22,0.25
2013-5-2,42,38,33,40,36,32,97,94,92,30.38,30.10,15,6,24,0.54
2013-5-3,40,37,35,37,35,33,97,92,79,30.30,29.89,14,5,21,0.27
2013-5-4,50,42,33,45,39,32,98,90,74,30.01,29.82,9,3,13,0.18
2013-5-5,57,50,45,52,48,44,98,92,79,30.09,29.99,8,4,13,0.01
2013-5-6,68,56,50,57,52,48,96,86,64,30.08,29.98,7,3,13,0.00
2013-5-7,77,61,45,59,50,44,99,73,34,30.05,29.92,8,1,12,0.00
2013-5-8,76,65,55,61,56,51,97,76,52,29.95,29.82,12,2,22,0.11
2013-5-9,78,65,58,64,59,56,98,81,51,29.87,29.77,9,2,17,0.18
2013-5-10,67,58,50,56,52,47,97,83,51,30.00,29.85,9,3,13,0.00
2013-5-11,67,56,44,51,39,28,97,58,26,30.20,30.00,15,4,24,0.00
2013-5-12,69,54,35,44,34,24,93,52,24,30.25,30.09,7,1,10,0.00
2013-5-13,80,65,46,57,49,42,91,60,37,30.12,29.87,9,2,18,0.00
2013-5-14,94,78,63,58,52,45,77,47,20,29.87,29.71,15,4,26,0.00
2013-5-15,89,76,66,68,60,54,85,59,41,29.81,29.72,10,4,18,0.00
2013-5-16,82,70,60,65,62,59,96,75,51,29.81,29.72,9,2,16,0.00
2013-5-17,79,68,60,65,61,58,96,80,55,29.87,29.78,5,1,8,0.00
2013-5-18,86,75,60,72,66,59,97,75,54,29.85,29.64,10,2,16,0.00
2013-5-19,84,71,62,72,64,59,97,81,59,29.77,29.49,16,3,31,0.74
2013-5-20,81,69,61,70,64,59,96,84,66,29.68,29.55,9,2,17,0.01
2013-5-21,78,67,55,63,54,50,92,65,41,29.71,29.61,12,2,20,0.00
2013-5-22,68,62,54,54,52,48,87,70,56,29.89,29.67,10,2,20,0.00
2013-5-23,70,60,52,58,52,49,93,76,58,30.16,29.89,9,2,15,0.00
2013-5-24,76,63,48,56,50,47,98,68,42,30.26,30.06,8,1,18,0.00
2013-5-25,85,72,62,67,60,48,81,65,50,30.09,29.92,11,3,20,0.00
2013-5-26,86,76,68,70,67,65,89,74,56,29.97,29.80,11,4,20,0.00
2013-5-27,83,72,63,72,66,62,98,81,64,29.85,29.58,12,3,22,2.37
2013-5-28,80,75,71,73,69,66,94,82,73,29.72,29.56,11,3,21,0.06
2013-5-29,83,75,65,69,67,62,94,75,60,29.73,29.55,15,5,33,0.09
2013-5-30,75,66,62,67,63,60,97,91,72,29.67,29.53,10,3,20,1.42
2013-5-31,79,68,59,70,64,58,98,89,60,29.69,29.59,7,1,12,1.65
2013-6-1,72,66,60,65,57,51,96,75,52,29.92,29.61,10,3,20,0.00
2013-6-2,65,58,50,54,51,48,96,77,56,30.04,29.91,8,3,14,0.00
2013-6-3,76,63,46,59,53,46,98,72,50,30.03,29.83,10,2,17,0.00
2013-6-4,77,67,62,67,61,57,95,83,66,29.90,29.78,9,2,17,0.24
2013-6-5,69,64,61,67,62,60,98,93,86,29.92,29.84,7,1,10,0.30
2013-6-6,75,66,56,62,57,52,99,75,44,29.91,29.84,8,2,14,0.00
2013-6-7,76,64,52,60,54,49,99,74,42,29.95,29.84,8,1,14,0.00
2013-6-8,83,70,56,63,58,52,93,66,46,29.88,29.68,13,3,25,0.02
2013-6-9,83,72,62,64,59,51,97,70,34,29.78,29.69,11,3,20,0.54
2013-6-10,90,74,57,65,60,51,97,66,27,29.83,29.74,6,1,10,0.00
2013-6-11,96,83,72,71,66,61,89,60,33,29.80,29.69,11,4,20,0.00
2013-6-12,96,85,76,73,70,61,81,62,42,29.83,29.66,13,4,23,0.00
2013-6-13,87,75,62,65,61,55,88,63,41,29.97,29.83,12,2,21,0.00
2013-6-14,92,78,65,75,68,63,94,75,51,29.94,29.78,10,2,17,0.00
2013-6-15,93,77,67,76,70,64,95,80,43,29.93,29.78,12,3,26,1.47
2013-6-16,86,76,66,76,71,65,99,86,65,29.89,29.81,5,1,9,0.00
2013-6-17,83,73,65,73,68,64,98,86,67,29.92,29.81,8,1,14,0.17
2013-6-18,90,72,63,73,66,61,99,83,42,29.94,29.89,7,1,13,0.02
2013-6-19,90,78,64,72,66,63,99,72,42,29.96,29.86,8,2,15,0.00
2013-6-20,92,80,69,75,71,66,94,73,55,29.93,29.80,11,3,21,0.00
2013-6-21,94,83,76,76,72,69,87,70,51,29.88,29.80,12,4,23,0.00
2013-6-22,94,84,74,74,70,67,82,65,45,29.89,29.75,12,4,23,0.00
2013-6-23,92,82,74,77,71,70,88,70,50,29.85,29.68,14,3,25,0.00
2013-6-24,93,83,76,73,69,65,79,64,43,29.86,29.69,12,5,22,0.00
2013-6-25,91,81,74,74,71,68,95,71,51,29.80,29.62,14,4,28,0.06
2013-6-26,100,85,73,76,70,53,88,64,23,29.78,29.62,9,3,14,0.00
2013-6-27,90,78,70,79,70,66,94,77,50,29.91,29.74,12,1,21,0.06
2013-6-28,88,78,68,73,65,55,99,69,36,29.86,29.78,11,3,18,0.03
2013-6-29,85,75,64,62,58,52,84,59,33,29.80,29.72,16,4,26,0.00
2013-6-30,80,70,60,62,58,56,88,66,46,29.96,29.80,10,2,18,0.00
2013-7-1,83,70,57,60,55,48,93,63,33,30.04,29.96,10,2,16,0.00
2013-7-2,84,70,55,64,55,48,97,64,31,30.06,29.97,8,1,12,0.01
2013-7-3,89,71,59,62,57,48,93,66,25,30.01,29.90,7,2,14,0.20
2013-7-4,90,76,62,63,57,52,84,56,30,29.97,29.87,7,1,12,0.01
2013-7-5,93,80,65,65,61,57,81,55,33,29.92,29.80,9,2,17,0.00
2013-7-6,91,76,68,67,63,61,83,66,42,29.92,29.81,10,2,20,0.01
2013-7-7,94,83,74,70,67,65,78,59,41,29.89,29.82,9,4,20,0.02
2013-7-8,98,84,76,72,67,65,73,58,37,29.93,29.86,9,3,14,0.00
2013-7-9,102,89,77,75,71,68,79,58,37,29.90,29.74,9,3,17,0.00
2013-7-10,94,84,71,74,67,56,83,59,29,29.93,29.78,11,2,20,0.00
2013-7-11,90,78,68,66,60,55,84,56,33,30.00,29.88,6,1,12,0.00
2013-7-12,93,79,68,69,63,59,78,59,42,29.96,29.87,8,2,15,0.00
2013-7-13,94,81,70,70,63,58,67,56,41,29.94,29.86,7,2,13,0.00
2013-7-14,90,79,66,64,61,55,85,57,31,30.02,29.90,7,1,16,0.00
2013-7-15,93,79,69,72,67,62,89,67,42,30.09,30.00,7,1,10,0.00
2013-7-16,96,83,71,72,68,64,91,64,36,30.17,30.08,6,1,10,0.00
2013-7-17,96,84,73,73,70,68,89,64,42,30.22,30.08,6,1,10,0.00
2013-7-18,98,86,71,72,68,63,92,58,34,30.11,29.89,8,2,16,0.00
2013-7-19,100,87,73,70,66,62,80,52,30,29.90,29.74,10,2,16,0.00
2013-7-20,92,78,72,75,71,67,96,79,47,29.84,29.75,7,1,13,0.26
2013-7-21,89,78,69,72,70,68,97,78,51,29.84,29.71,7,1,13,0.01
2013-7-22,96,82,70,75,70,65,97,70,38,29.76,29.67,9,2,16,0.00
2013-7-23,88,79,72,74,70,65,94,75,55,29.83,29.71,8,2,12,0.00
2013-7-24,87,76,67,64,60,55,78,60,36,29.96,29.82,7,2,12,0.00
2013-7-25,89,75,66,70,64,60,92,71,40,30.01,29.91,6,1,10,0.02
2013-7-26,88,76,68,73,65,54,94,71,40,29.98,29.88,10,2,20,0.02
2013-7-27,79,68,54,60,54,48,97,65,34,30.04,29.91,8,2,12,0.00
2013-7-28,78,67,56,58,55,50,96,68,40,30.00,29.95,5,1,8,0.00
2013-7-29,71,66,61,71,64,56,98,91,72,30.01,29.88,4,0,10,0.59
2013-7-30,84,75,71,75,72,70,99,91,72,29.98,29.89,6,1,11,0.43
2013-7-31,86,76,68,71,68,64,98,80,49,30.03,29.94,7,1,13,0.00
2013-8-1,91,78,66,70,67,64,97,71,42,30.02,29.86,6,1,10,0.00
2013-8-2,90,78,66,76,71,65,98,82,57,29.91,29.75,7,1,12,0.59
2013-8-3,86,78,72,75,72,70,96,81,62,30.03,29.80,5,1,9,0.06
2013-8-4,76,71,67,73,68,63,98,90,75,30.06,29.94,5,1,12,0.52
2013-8-5,87,76,70,76,72,69,98,88,66,29.97,29.73,6,1,10,0.00
2013-8-6,91,80,70,77,74,70,98,82,58,29.79,29.69,7,1,14,0.77
2013-8-7,86,78,70,77,73,68,98,85,69,29.86,29.68,12,2,21,0.52
2013-8-8,75,72,69,70,67,65,95,85,75,29.93,29.77,6,1,13,0.01
2013-8-9,75,71,65,72,67,64,98,89,74,30.04,29.91,3,0,5,0.01
2013-8-10,86,74,62,68,63,59,99,74,44,30.12,30.00,7,1,13,0.01
2013-8-11,88,76,64,70,65,59,89,71,49,30.06,29.92,6,1,12,0.01
2013-8-12,83,75,67,72,69,66,98,85,62,29.95,29.86,12,2,23,0.52
2013-8-13,81,72,65,69,64,57,98,78,46,30.04,29.93,7,1,10,0.00
2013-8-14,78,69,63,65,60,56,96,74,50,30.12,30.01,5,1,10,0.00
2013-8-15,75,68,63,65,58,55,89,73,55,30.05,29.93,6,1,12,0.04
2013-8-16,77,68,60,62,58,56,92,71,52,30.09,30.00,5,1,10,0.00
2013-8-17,79,66,54,63,57,54,98,75,45,30.14,30.03,6,1,9,0.00
2013-8-18,82,70,56,66,61,56,98,75,47,30.10,29.99,8,1,13,0.00
2013-8-19,85,74,64,68,64,62,94,74,49,30.04,29.91,8,1,14,0.00
2013-8-20,88,78,69,70,66,64,84,68,48,29.98,29.89,8,2,14,0.00
2013-8-21,90,79,70,72,68,64,83,69,50,29.99,29.90,7,2,12,0.00
2013-8-22,89,80,71,72,70,67,87,73,53,30.01,29.92,5,1,9,0.03
2013-8-23,91,81,70,74,69,65,96,71,44,30.00,29.91,8,1,16,0.00
2013-8-24,91,82,73,76,71,69,89,71,52,30.04,29.94,8,2,13,0.00
2013-8-25,92,82,73,76,71,68,88,71,49,30.11,30.01,8,2,14,0.00
2013-8-26,94,83,73,74,71,69,89,69,46,30.07,29.95,9,3,16,0.04
2013-8-27,93,82,71,71,68,64,90,65,41,29.98,29.88,10,2,17,0.00
2013-8-28,91,80,69,73,70,66,93,71,49,29.96,29.90,8,2,14,0.27
2013-8-29,95,85,76,75,72,68,84,66,44,29.94,29.84,7,2,13,0.00
2013-8-30,99,87,75,74,70,64,85,61,32,29.86,29.72,8,2,15,0.00
2013-8-31,93,82,74,77,72,66,92,73,43,29.76,29.68,9,1,15,0.01
2013-9-1,88,77,66,75,70,64,96,80,55,29.87,29.66,18,1,39,1.40
2013-9-2,82,70,60,66,62,58,98,77,47,29.98,29.87,6,1,13,0.00
2013-9-3,85,70,56,63,59,56,98,72,40,30.04,29.94,4,0,7,0.00
2013-9-4,85,72,60,66,61,57,92,69,41,30.09,29.98,2,0,7,0.00
2013-9-5,87,74,61,67,63,59,96,71,41,30.12,30.02,4,0,9,0.00
2013-9-6,89,79,69,70,64,62,83,63,45,30.05,29.89,5,0,9,0.00
2013-9-7,97,83,71,71,67,64,79,61,37,29.91,29.78,7,1,12,0.00
2013-9-8,100,86,74,72,68,65,79,58,33,29.81,29.70,7,0,12,0.00
2013-9-9,95,84,74,69,65,60,77,55,33,29.85,29.76,10,1,18,0.00
2013-9-10,94,83,73,70,66,63,74,57,38,29.97,29.84,8,1,20,0.00
2013-9-11,94,81,69,67,63,58,83,58,32,30.03,29.92,6,0,14,0.00
2013-9-12,85,76,71,72,65,47,95,70,43,30.05,29.96,5,0,12,0.03
2013-9-13,77,67,56,56,50,47,86,57,38,30.11,29.98,6,0,13,0.00
2013-9-14,78,67,55,55,51,47,79,58,39,30.04,29.88,6,1,13,0.00
2013-9-15,86,72,65,69,60,54,91,68,50,30.06,29.86,8,1,13,0.03
2013-9-16,65,61,59,62,59,58,97,93,87,30.18,30.05,5,0,12,0.34
2013-9-17,72,66,62,69,64,60,98,95,88,30.12,29.90,7,1,15,0.75
2013-9-18,88,74,68,74,69,66,97,84,56,29.91,29.73,10,2,20,0.01
2013-9-19,92,78,67,72,68,66,97,74,44,29.84,29.64,13,2,36,1.21
2013-9-20,70,63,52,66,55,49,98,77,51,29.99,29.82,9,2,14,0.00
2013-9-21,74,60,47,55,50,45,99,75,37,30.00,29.86,5,0,7,0.01
2013-9-22,76,64,54,57,51,49,86,66,40,29.93,29.79,8,1,14,0.00
2013-9-23,77,66,55,57,54,51,87,67,44,29.87,29.71,10,2,20,0.00
2013-9-24,69,64,58,61,58,56,97,81,69,29.79,29.68,6,2,12,0.00
2013-9-25,78,65,54,67,60,53,99,84,60,29.84,29.75,6,1,10,0.00
2013-9-26,85,72,61,65,61,58,92,71,41,29.84,29.76,8,2,20,0.00
2013-9-27,86,75,66,66,62,61,85,66,43,29.88,29.77,9,2,20,0.00
2013-9-28,73,65,52,67,60,52,98,85,66,30.02,29.72,9,2,20,0.37
2013-9-29,73,58,46,58,51,45,100,80,43,30.06,29.89,5,0,8,0.01
2013-9-30,78,64,49,62,56,49,98,78,51,29.90,29.75,7,1,14,0.00
2013-10-1,82,69,58,69,63,56,98,83,57,29.89,29.78,8,1,14,0.00
2013-10-2,83,72,63,73,67,61,98,84,59,29.93,29.79,7,1,14,0.00
2013-10-3,85,74,64,73,68,62,96,81,61,29.81,29.64,14,3,30,0.03
2013-10-4,87,77,66,72,68,64,93,76,50,29.82,29.64,13,4,28,0.45
2013-10-5,66,54,46,64,43,38,94,67,47,29.97,29.81,10,3,17,0.01
2013-10-6,62,52,43,47,42,36,89,70,52,29.97,29.81,11,4,22,0.00
2013-10-7,72,56,40,50,45,38,97,71,39,30.11,29.96,8,1,12,0.00
2013-10-8,76,63,52,52,48,45,81,62,36,30.05,29.95,11,2,21,0.00
2013-10-9,76,63,52,55,49,46,82,62,36,30.04,29.94,9,2,18,0.00
2013-10-10,78,65,52,60,53,48,89,68,44,30.00,29.79,8,2,15,0.00
2013-10-11,76,67,58,66,60,54,92,79,69,29.81,29.69,10,3,21,0.41
2013-10-12,69,58,46,59,47,41,96,72,38,30.20,29.77,7,2,12,0.03
2013-10-13,70,56,42,46,41,36,97,64,32,30.36,30.20,8,1,15,0.00
2013-10-14,68,59,53,60,47,37,92,66,49,30.24,29.80,12,3,26,0.05
2013-10-15,62,54,43,59,47,39,97,78,52,30.03,29.80,9,3,18,0.14
2013-10-16,60,50,41,47,42,38,92,76,54,30.08,29.94,9,1,13,0.01
2013-10-17,66,51,41,48,43,36,96,76,37,29.98,29.84,8,2,15,0.01
2013-10-18,47,40,36,42,38,35,97,90,70,30.09,29.98,6,1,12,0.20
2013-10-19,61,46,34,44,38,33,97,76,41,30.08,29.86,11,2,21,0.00
2013-10-20,70,56,46,48,44,40,89,66,39,29.88,29.74,10,2,18,0.00
2013-10-21,55,48,41,47,38,31,89,69,43,30.07,29.88,7,2,13,0.00
2013-10-22,62,51,38,48,40,34,87,68,49,30.06,29.87,12,4,20,0.00
2013-10-23,52,42,32,40,35,30,97,77,52,30.14,30.00,6,1,13,0.00
2013-10-24,52,42,32,39,33,26,94,73,39,30.41,30.13,10,2,14,0.00
2013-10-25,56,43,29,34,29,25,95,62,31,30.45,30.12,9,2,18,0.00
2013-10-26,62,50,36,47,38,33,92,66,37,30.13,30.04,10,2,15,0.00
2013-10-27,63,46,30,37,33,29,97,66,31,30.13,29.90,8,1,14,0.00
2013-10-28,67,52,38,55,45,34,91,79,61,30.09,29.95,8,1,13,0.00
2013-10-29,66,58,53,66,57,49,99,96,85,30.07,29.87,5,1,9,0.94
2013-10-30,69,66,62,67,65,61,99,96,82,29.90,29.64,10,3,21,1.74
2013-10-31,62,51,46,62,50,44,99,95,82,29.65,29.48,13,2,25,1.14
2013-11-1,61,50,40,48,42,39,97,76,47,29.95,29.61,10,2,21,0.01
2013-11-2,56,46,38,42,38,34,95,75,44,30.16,29.94,11,3,15,0.00
2013-11-3,60,49,37,42,38,35,94,67,42,30.14,29.86,12,3,21,0.00
2013-11-4,60,56,50,52,48,42,86,76,62,30.04,29.83,9,3,20,0.13
2013-11-5,60,57,48,59,56,46,98,95,86,30.04,29.79,9,2,17,0.68
2013-11-6,48,39,32,46,36,31,97,90,76,30.32,29.87,12,3,25,0.15
2013-11-7,56,41,31,42,34,30,98,81,42,30.39,30.30,9,1,17,0.01
2013-11-8,64,51,32,40,36,30,96,58,33,30.30,29.85,13,4,32,0.00
2013-11-9,66,52,39,44,38,33,91,64,31,30.26,29.93,6,1,12,0.00
2013-11-10,58,48,38,40,36,30,91,63,37,30.38,30.17,6,1,8,0.00
2013-11-11,63,47,28,54,40,19,93,76,58,30.60,30.12,11,3,23,0.01
2013-11-12,35,26,18,19,16,12,86,68,39,30.86,30.60,10,2,20,0.00
2013-11-13,49,35,22,26,19,16,86,56,29,30.69,30.16,9,3,20,0.00
2013-11-14,55,44,35,31,28,25,70,54,36,30.16,29.92,10,4,20,0.00
2013-11-15,59,50,43,47,40,31,87,68,56,29.94,29.68,9,3,16,0.00
2013-11-16,69,63,51,61,57,47,90,82,69,29.69,29.35,14,7,26,0.00
2013-11-17,67,60,45,62,41,18,85,55,18,30.02,29.26,15,5,28,0.00
2013-11-18,58,45,35,39,32,25,92,64,30,30.25,30.02,6,1,10,0.00
2013-11-19,60,50,40,32,29,25,65,46,28,30.22,29.94,11,3,20,0.00
2013-11-20,51,47,41,41,35,22,86,65,32,29.94,29.81,9,2,17,0.10
2013-11-21,52,43,29,48,39,27,95,87,68,30.40,29.92,12,4,20,0.15
2013-11-22,31,27,24,27,24,21,93,88,82,30.62,30.39,11,4,20,0.01
2013-11-23,29,24,16,21,15,7,89,69,43,30.79,30.61,11,3,17,0.00
2013-11-24,28,21,14,16,11,7,79,65,50,30.76,30.35,6,1,12,0.00
2013-11-25,38,32,25,23,21,16,90,64,52,30.35,30.16,7,1,12,0.00
2013-11-26,39,28,19,28,21,12,95,74,45,30.41,30.16,14,4,22,0.00
2013-11-27,34,25,15,17,13,10,82,62,41,30.45,30.18,6,1,15,0.00
2013-11-28,43,32,22,26,21,16,87,65,49,30.48,30.16,8,2,12,0.00
2013-11-29,52,37,22,32,25,19,87,64,44,30.49,30.23,8,1,20,0.00
2013-11-30,55,43,32,40,33,25,94,70,54,30.23,30.04,8,2,15,0.00
2013-12-1,56,40,27,41,34,26,96,81,52,30.10,29.85,4,0,7,0.00
2013-12-2,52,44,35,46,41,34,98,90,76,29.85,29.57,8,2,13,0.00
2013-12-3,59,46,40,48,43,39,97,89,65,29.57,29.48,6,1,12,0.01
2013-12-4,45,34,24,44,32,16,98,90,73,30.03,29.46,11,3,20,0.02
2013-12-5,24,19,17,17,11,8,89,71,65,30.41,30.03,13,5,20,0.00
2013-12-6,19,15,10,8,4,1,70,59,48,30.69,30.39,10,4,16,0.00
2013-12-7,22,14,5,8,4,1,84,63,46,30.76,30.39,5,1,10,0.00
2013-12-8,24,21,19,22,16,7,94,81,56,30.40,29.99,7,1,12,0.00
2013-12-9,21,13,11,18,8,4,91,79,62,30.44,30.19,8,1,12,0.00
2013-12-10,38,24,12,20,14,6,79,66,44,30.38,30.21,6,2,12,0.01
2013-12-11,29,21,11,22,12,5,87,70,44,30.64,30.24,12,3,20,0.00
2013-12-12,46,29,13,25,16,6,81,59,37,30.63,30.17,9,2,18,0.00
2013-12-13,38,34,28,35,32,24,97,90,81,30.17,29.83,6,2,12,0.06
2013-12-14,35,27,20,35,25,17,98,90,82,30.24,29.86,11,4,18,0.01
2013-12-15,50,35,18,34,27,16,93,74,52,30.23,29.96,8,1,13,0.00
2013-12-16,60,40,28,35,29,24,90,67,34,30.13,29.94,7,1,10,0.00
2013-12-17,48,34,23,34,26,22,95,74,42,30.28,30.13,10,1,17,0.00
2013-12-18,63,47,27,40,32,23,83,58,36,30.22,29.75,12,4,23,0.00
2013-12-19,57,54,46,52,47,38,87,78,59,29.75,29.58,9,3,20,0.00
2013-12-20,46,26,21,41,24,19,95,91,83,29.93,29.63,10,4,16,0.00
2013-12-21,29,25,22,28,23,19,96,92,89,29.90,29.61,7,2,12,0.00
2013-12-22,26,21,10,24,19,8,95,91,84,30.40,29.73,9,2,14,0.00
2013-12-23,15,10,4,10,6,2,92,84,75,30.67,30.39,6,1,8,0.00
2013-12-24,31,19,3,29,15,0,92,84,73,30.64,30.23,7,2,14,0.04
2013-12-25,40,32,24,32,28,22,94,86,68,30.34,30.27,7,1,13,0.18
2013-12-26,46,33,22,33,28,21,95,80,53,30.34,30.17,11,2,18,0.17
2013-12-27,53,38,24,36,31,23,95,78,47,30.34,30.17,6,1,12,0.05
2013-12-28,55,43,33,35,32,29,87,67,39,30.17,29.85,9,2,20,0.00
2013-12-29,39,19,9,32,10,-1,82,68,48,30.35,29.91,13,6,24,0.00
2013-12-30,31,20,8,17,7,-1,81,60,42,30.35,30.20,8,1,13,0.00
2013-12-31,50,34,17,30,23,15,92,67,41,30.35,30.04,9,2,17,0.00
2014-1-1,37,23,10,26,18,6,89,81,61,30.32,30.00,12,4,20,0.00
2014-1-2,19,9,2,9,3,-2,85,76,58,30.53,30.32,9,2,16,0.00